Tracking 17264 objects as of 2-September-2015
HD Live streaming from Space Station
Soyuz TMA-18M launch Live coverage:
Soyuz TMA-18M launch from Baikonur

GLOBALSTAR M006

Track GLOBALSTAR M006 now!
10-day predictions
GLOBALSTAR M006 is classified as:


NORAD ID: 25307
Int'l Code: 1998-023B
Perigee: 1,420.5 km
Apogee: 1,421.1 km
Inclination: 52.0 °
Period: 114.1 minutes
Semi major axis: 7791 km
RCS: 2.7065 m2 (large)
Launch date: April 24, 1998
Source: Globalstar (GLOB)
Your satellite tracking list
Your tracking list is empty





NASA's NSSDC Master Catalog

Two Line Element Set (TLE):
1 25307U 98023B   15244.16832028 -.00000106  00000-0 -13598-4 0  9994
2 25307  51.9965 227.8917 0000386 108.4129 331.2975 12.62263360800517

Source of the keplerian elements: AFSPC

N2YO: 361